Regional Weather Roundup
Issued by NWS Sterling, VA

Home | Current Version | Previous Version | Graphics & Text | Print | Product List | Glossary On
Versions: 1 2 3 4 5 6 7 8 9 10 11 12 13 14 15 16 17 18 19 20 21 22 23 24 25 26 27 28 29 30 31 32 33 34 35 36 37 38 39 40 41 42 43 44 45 46 47 48 49 50
000
ASUS41 KLWX 220810
RWRLWX

REGIONAL WEATHER ROUNDUP
NATIONAL WEATHER SERVICE BALTIMORE MD/WASHINGTON DC
300 AM EST MON DEC 22 2014

Note: "FAIR" indicates few or no clouds below 12,000 feet
with no significant weather and/or obstructions to visibility.
 TC=TEMPERATURE CELSIUS

 * =Non NWS site. Station does not report precipitation (e.g. rain,
    snow, etc.), thunder, or fog.

DCZ001-MDZ009-015-VAZ040>042-051-053>054-220900-
WASHINGTON METRO

CITY           SKY/WX    TMP DP  RH WIND       PRES   REMARKS
WASHINGTON NAT CLOUDY    34  24  67 NE7       30.33F
DULLES         MOCLDY    27  22  81 CALM      30.31F
ANDREWS AFB    PTCLDY    27  23  85 NE6       30.30F
FT BELVOIR     CLOUDY    28  25  86 CALM      30.32F FOG
QUANTICO       CLOUDY    34  28  79 NE5       30.33F
COLLEGE PARK*  CLOUDY    28  27  93 CALM      30.32F
LEESBURG*      MOCLDY    28  27  93 N5        30.31F
MANASSAS*      CLOUDY    27  27 100 CALM      30.32S
GAITHERSBURG*  FAIR      25  19  80 CALM      30.33F

$$

MDZ006>007-011-014-220900-
BALTIMORE METRO

CITY           SKY/WX    TMP DP  RH WIND       PRES   REMARKS
BWI AIRPORT    MOCLDY    26  22  84 CALM      30.32F
MD SCIENCE CTR   N/A     32  23  69 MISG      30.33F
MARTIN STATE   PTCLDY    27  25  93 CALM      30.35F
ANNAPOLIS      MOCLDY    32  28  85 N5        30.32F FOG
FORT MEADE*    PTCLDY    25  23  93 CALM      30.34F

$$

MDZ012-015-019>023-220900-
MARYLAND EASTERN SHORE

CITY           SKY/WX    TMP DP  RH WIND       PRES   REMARKS
OCEAN CITY     MOCLDY    27  24  89 NW3       30.31S FOG
SALISBURY      CLOUDY    31  25  78 CALM      30.31S
BAY BRIDGE AP*   N/A     32  27  80 CALM      30.33F
CAMBRIDGE*     CLOUDY    32  27  80 CALM      30.32R
EASTON*        CLOUDY    30  27  88 NE5       30.35F

$$

MDZ017>025-220900-
SOUTHERN MARYLAND

CITY           SKY/WX    TMP DP  RH WIND       PRES   REMARKS
PATUXENT RIVER CLOUDY    34  28  79 NE5       30.31F
ST INIGOES     CLOUDY    35  27  72 NE5       30.30F
LEONARDTOWN*   CLOUDY    32  28  86 CALM      30.32F

$$

MDZ003>005-220900-
NORTH CENTRAL MARYLAND

CITY           SKY/WX    TMP DP  RH WIND       PRES   REMARKS
FREDERICK*     FAIR      25  21  86 CALM      30.34F FOG
HAGERSTOWN APT PTCLDY    24  19  81 NE3       30.29F
WESTMINSTER*   FAIR      23  19  86 CALM      30.29F

$$

MDZ501>502-220900-
WESTERN MARYLAND

CITY           SKY/WX    TMP DP  RH WIND       PRES   REMARKS
OAKLAND*       PTCLDY    23 N/A N/A SE15      30.09F HAZE    WCI  10
CUMBERLAND*    CLOUDY    27  25  93 CALM      30.29F

$$

VAZ025>031-220900-
SHENANDOAH VALLEY

CITY           SKY/WX    TMP DP  RH WIND       PRES   REMARKS
WINCHESTER*    MOCLDY    28  21  74 CALM      30.27F
FRONT ROYAL*   CLOUDY    28  23  80 N3        30.26S
LURAY*         CLOUDY    30  30 100 CALM      30.25F FOG
NEW MARKET*    CLOUDY    29  26  88 CALM      30.25S
STAUNTON*      CLOUDY    32  27  80 CALM      30.25S
WAYNESBORO*    CLOUDY    33  26  73 SE5       30.22S

$$

WVZ021-048>050-054>055-220900-
EASTERN WEST VIRGINIA PANHANDLE

CITY           SKY/WX    TMP DP  RH WIND       PRES   REMARKS
MARTINSBURG    PTCLDY    23  17  78 CALM      30.29F
PETERSBURG*    CLOUDY    29  28  96 CALM      30.24F FOG

$$

VAZ036>039-050-220900-
CENTRAL FOOTHILLS

CITY           SKY/WX    TMP DP  RH WIND       PRES   REMARKS
CHARLOTTESVILL CLOUDY    33  26  75 E5        30.27F
CULPEPER*      CLOUDY    28  27  93 CALM      30.30F
ORANGE*        CLOUDY    32  30  93 N3        30.29F
GORDONSVILLE*  CLOUDY    32  28  85 CALM      30.28S
WARRENTON*     CLOUDY    30  30 100 CALM      30.30S

$$

VAZ055>057-220900-
NORTH AND CENTRAL PIEDMONT

CITY           SKY/WX    TMP DP  RH WIND       PRES   REMARKS
FREDERICKSBRG* CLOUDY    33  30  88 CALM      30.30F
STAFFORD*      CLOUDY    32  31  96 N3        30.35S

$$

NCZ024-NYZ072-PAZ021-071-VAZ022-071-220900-
OTHER REGIONAL OBSERVATIONS

CITY           SKY/WX    TMP DP  RH WIND       PRES   REMARKS
NEW YORK CITY  CLOUDY    35  29  78 VRB3      30.35S
PHILADELPHIA   PTCLDY    29  21  72 NW3       30.35S
PITTSBURGH     PTCLDY    24  21  88 E6        30.13F
ROANOKE        CLOUDY    37  27  67 SE5       30.23F
RICHMOND       CLOUDY    37  28  70 NE5       30.27F
RALEIGH        LGT RAIN  37  33  85 NE10      30.19S

$$

ANZ530>537-220900-
MARINE OBSERVATIONS

STATION/POSITION TIME  TEMP    WIND        PRES
                       AIR SEA DIR/SP/G
                 (UTC) (F)     (DEG/KT/KT) (MB)
THOMAS PT LIGHT  0800   34 41   40/  8/  9 1027.7F
BALT KEY BRIDGE  0800   31     360/  4/  4 1027.3R
COVE POINT       0800   33      80/  9/ 12 1026.4F
LEWISETTA        0800   38 41   70/  8/ 10 1025.7S
SOLOMONS ISLAND  0800      42                N/A

$$



USA.gov is the U.S. government's official web portal to all federal, state and local government web resources and services.